Regional Weather Roundup
Issued by NWS Goodland, KS

Home | Current Version | Previous Version | Graphics & Text | Print | Product List | Glossary On
Versions: 1 2 3 4 5 6 7 8 9 10 11 12 13 14 15 16 17 18 19 20 21 22 23 24 25 26 27 28 29 30 31 32 33 34 35 36 37 38 39 40 41 42 43 44 45 46 47 48 49 50
000
ASUS43 KGLD 011359
RWRGLD

GOODLAND FORECAST AREA HOURLY WEATHER ROUNDUP
NATIONAL WEATHER SERVICE GOODLAND KS
800 AM MDT FRI AUG 01 2014

...OFFICIAL OBSERVATIONS...

CITY           SKY/WX    TMP DP  RH WIND       PRES   REMARKS
GOODLAND KS    MOSUNNY   68  57  68 W9        30.20R
HILL CITY KS   SUNNY     74  59  59 N10       30.12R
IMPERIAL NEB   SUNNY     69  55  60 CALM      30.16R
MCCOOK NEB       N/A     66  57  72 CALM      30.14R
AKRON CO       MOSUNNY   66  55  67 W12       30.24R
BURLINGTON CO  MOSUNNY   66  56  70 W7        30.23R
LIMON CO       SUNNY     60  56  86 NW3       30.30R
$$

...UNOFFICIAL OBSERVATIONS...

CITY           SKY/WX    TMP DP  RH WIND       PRES   REMARKS
COLBY KS       SUNNY     70  61  73 W7        30.17S
GOVE KS          N/A     65  32  29 MISG        N/A
LENORA KS        N/A     70  32  24 MISG        N/A
NORTON KS      SUNNY     70  55  60 NW5       30.12R
WAKEENEY KS      N/A     71  51  50 MISG        N/A
TRENTON NEB      N/A     69  32  25 CALM        N/A
KIT CARSON CO    N/A     64  56  75 CALM        N/A
YUMA CO          N/A     64  59  84 W5          N/A
$$



USA.gov is the U.S. government's official web portal to all federal, state and local government web resources and services.